| time (UTC) | temp F | wind direction | speed MPH | gust MPH | rain 1hr in | rain 24hr in | rain mn in | humidity % | barometer mb |
| 20260504060204 | 56 | 29 | 2.0 | 7.0 | 0.00 | 0.81 | 0.69 | 88 | 1013.8 |
| 20260504050702 | 57 | 47 | 2.0 | 6.0 | 0.01 | 0.81 | 0.69 | 89 | 1013.5 |
| 20260504050420 | 57 | 20 | 2.0 | 8.0 | 0.01 | 0.81 | 0.69 | 89 | 1013.5 |
| 20260504045918 | 58 | 19 | 2.0 | 7.0 | 0.01 | 0.81 | 0.69 | 89 | 1013.5 |
| 20260504045156 | 58 | 3 | 2.0 | 7.0 | 0.01 | 0.81 | 0.69 | 90 | 1013.4 |
| 20260504044649 | 58 | 54 | 2.0 | 6.0 | 0.02 | 0.81 | 0.69 | 91 | 1013.4 |
| 20260504044142 | 58 | 9 | 2.0 | 7.0 | 0.02 | 0.81 | 0.69 | 92 | 1013.5 |
| 20260504043637 | 58 | 59 | 2.0 | 7.0 | 0.02 | 0.81 | 0.69 | 92 | 1013.4 |
| 20260504043131 | 58 | 27 | 1.0 | 5.0 | 0.05 | 0.81 | 0.69 | 93 | 1013.4 |
| 20260504042624 | 58 | 359 | 0.0 | 4.0 | 0.05 | 0.81 | 0.69 | 93 | 1013.5 |
| 20260504042119 | 58 | 72 | 0.0 | 5.0 | 0.05 | 0.81 | 0.69 | 93 | 1013.4 |
| 20260504041613 | 58 | 286 | 1.0 | 5.0 | 0.05 | 0.81 | 0.69 | 93 | 1013.4 |
| 20260504041108 | 58 | 312 | 0.0 | 3.0 | 0.04 | 0.80 | 0.69 | 93 | 1013.2 |
| 20260504040602 | 58 | 50 | 0.0 | 2.0 | 0.04 | 0.80 | 0.69 | 93 | 1013.5 |
| 20260504040054 | 58 | 295 | 1.0 | 4.0 | 0.04 | 0.80 | 0.69 | 93 | 1013.4 |
| 20260504035811 | 58 | 304 | 1.0 | 6.0 | 0.04 | 0.80 | 0.69 | 93 | 1013.2 |
| 20260504035042 | 58 | 80 | 1.0 | 6.0 | 0.04 | 0.80 | 0.69 | 92 | 1013.2 |
| 20260504034537 | 59 | 22 | 1.0 | 6.0 | 0.02 | 0.79 | 0.68 | 92 | 1013.4 |
| 20260504034030 | 59 | 337 | 2.0 | 13.0 | 0.02 | 0.79 | 0.67 | 92 | 1013.2 |
| 20260504033524 | 59 | 24 | 1.0 | 13.0 | 0.02 | 0.79 | 0.67 | 91 | 1013.1 |
| 20260504033020 | 59 | 33 | 1.0 | 6.0 | 0.00 | 0.76 | 0.65 | 91 | 1013.2 |
| 20260504032512 | 59 | 56 | 2.0 | 6.0 | 0.00 | 0.76 | 0.65 | 91 | 1013.2 |
| 20260504032006 | 59 | 36 | 2.0 | 6.0 | 0.00 | 0.76 | 0.65 | 91 | 1013.2 |
| 20260504031501 | 60 | 57 | 1.0 | 5.0 | 0.00 | 0.76 | 0.65 | 91 | 1013.2 |
| 20260504030954 | 60 | 51 | 1.0 | 5.0 | 0.00 | 0.76 | 0.65 | 91 | 1013.2 |
| 20260504030448 | 60 | 288 | 2.0 | 8.0 | 0.00 | 0.76 | 0.65 | 91 | 1013.4 |
| 20260504025944 | 60 | 301 | 2.0 | 8.0 | 0.00 | 0.76 | 0.65 | 91 | 1013.4 |
| 20260504025437 | 60 | 297 | 1.0 | 6.0 | 0.00 | 0.76 | 0.65 | 91 | 1013.4 |
| 20260504024930 | 60 | 358 | 2.0 | 11.0 | 0.00 | 0.76 | 0.65 | 91 | 1013.4 |
| 20260504024424 | 60 | 286 | 2.0 | 11.0 | 0.00 | 0.76 | 0.65 | 91 | 1013.5 |
| 20260504023918 | 60 | 57 | 2.0 | 8.0 | 0.00 | 0.76 | 0.65 | 91 | 1013.6 |
| 20260504023412 | 60 | 3 | 2.0 | 7.0 | 0.00 | 0.76 | 0.65 | 91 | 1013.7 |
| 20260504022906 | 60 | 299 | 2.0 | 9.0 | 0.00 | 0.76 | 0.65 | 91 | 1013.7 |
| 20260504022400 | 60 | 54 | 2.0 | 12.0 | 0.00 | 0.76 | 0.65 | 92 | 1013.8 |
| 20260504021853 | 60 | 27 | 1.0 | 12.0 | 0.00 | 0.76 | 0.65 | 92 | 1013.9 |
| 20260504021355 | 60 | 292 | 2.0 | 7.0 | 0.00 | 0.76 | 0.65 | 93 | 1013.9 |
| 20260504020852 | 60 | 348 | 2.0 | 7.0 | 0.00 | 0.76 | 0.65 | 93 | 1013.9 |
| 20260504020616 | 60 | 50 | 2.0 | 8.0 | 0.00 | 0.76 | 0.65 | 93 | 1014.1 |
| 20260504020116 | 59 | 76 | 2.0 | 9.0 | 0.00 | 0.76 | 0.65 | 93 | 1014.3 |
| 20260504015350 | 60 | 14 | 1.0 | 9.0 | 0.00 | 0.76 | 0.65 | 94 | 1014.4 |
| 20260504014849 | 59 | 281 | 2.0 | 9.0 | 0.00 | 0.76 | 0.65 | 93 | 1014.3 |
| 20260504014349 | 60 | 7 | 2.0 | 9.0 | 0.00 | 0.76 | 0.65 | 94 | 1014.4 |
| 20260504013848 | 60 | 355 | 2.0 | 9.0 | 0.00 | 0.76 | 0.65 | 94 | 1014.2 |
| 20260504013609 | 59 | 293 | 2.0 | 10.0 | 0.01 | 0.76 | 0.65 | 94 | 1014.6 |
| 20260504012846 | 59 | 306 | 3.0 | 12.0 | 0.01 | 0.76 | 0.65 | 94 | 1014.6 |
| 20260504012346 | 59 | 58 | 3.0 | 12.0 | 0.02 | 0.76 | 0.65 | 94 | 1014.6 |
| 20260504011846 | 59 | 345 | 2.0 | 17.0 | 0.05 | 0.76 | 0.65 | 94 | 1014.7 |
| 20260504011346 | 59 | 69 | 2.0 | 17.0 | 0.06 | 0.76 | 0.65 | 94 | 1014.7 |
| 20260504010846 | 59 | 244 | 2.0 | 9.0 | 0.06 | 0.76 | 0.65 | 94 | 1014.7 |
| 20260504010347 | 59 | 25 | 3.0 | 9.0 | 0.06 | 0.76 | 0.65 | 94 | 1014.7 |
| 20260504010105 | 59 | 299 | 2.0 | 11.0 | 0.06 | 0.76 | 0.65 | 94 | 1014.8 |
| 20260504005346 | 59 | 329 | 3.0 | 15.0 | 0.06 | 0.76 | 0.65 | 94 | 1014.8 |
| 20260504004846 | 59 | 104 | 5.0 | 15.0 | 0.06 | 0.76 | 0.65 | 94 | 1014.7 |
| 20260504004341 | 59 | 64 | 3.0 | 13.0 | 0.09 | 0.76 | 0.65 | 94 | 1014.7 |
| 20260504003838 | 59 | 118 | 3.0 | 9.0 | 0.11 | 0.76 | 0.65 | 95 | 1014.8 |
| 20260504003338 | 59 | 69 | 4.0 | 10.0 | 0.11 | 0.76 | 0.64 | 95 | 1014.8 |
| 20260504002837 | 59 | 337 | 4.0 | 10.0 | 0.12 | 0.76 | 0.64 | 95 | 1015.0 |
| 20260504002601 | 59 | 294 | 2.0 | 10.0 | 0.11 | 0.75 | 0.63 | 95 | 1015.0 |
| 20260504001836 | 59 | 294 | 2.0 | 11.0 | 0.09 | 0.72 | 0.60 | 95 | 1015.1 |
| 20260504001336 | 59 | 40 | 3.0 | 11.0 | 0.09 | 0.71 | 0.59 | 95 | 1015.0 |
| 20260504000834 | 59 | 44 | 2.0 | 12.0 | 0.09 | 0.71 | 0.59 | 95 | 1015.0 |
| 20260504000334 | 59 | 347 | 2.0 | 12.0 | 0.09 | 0.71 | 0.59 | 95 | 1014.8 |
| 20260503235835 | 59 | 18 | 2.0 | 8.0 | 0.09 | 0.71 | 0.59 | 95 | 1015.1 |
| 20260503235334 | 59 | 235 | 1.0 | 5.0 | 0.09 | 0.70 | 0.58 | 95 | 1014.8 |
| 20260503234834 | 59 | 313 | 1.0 | 5.0 | 0.10 | 0.70 | 0.58 | 95 | 1015.1 |
| 20260503234333 | 59 | 56 | 0.0 | 2.0 | 0.10 | 0.68 | 0.57 | 95 | 1015.2 |
| 20260503233832 | 59 | 52 | 0.0 | 5.0 | 0.10 | 0.65 | 0.54 | 95 | 1015.2 |
| 20260503233330 | 59 | 344 | 1.0 | 5.0 | 0.11 | 0.65 | 0.53 | 95 | 1015.2 |
| 20260503232827 | 59 | 64 | 1.0 | 8.0 | 0.13 | 0.64 | 0.52 | 95 | 1015.1 |
| 20260503232326 | 59 | 271 | 2.0 | 8.0 | 0.20 | 0.64 | 0.52 | 95 | 1015.3 |
| 20260503231826 | 59 | 265 | 3.0 | 10.0 | 0.20 | 0.63 | 0.51 | 95 | 1015.1 |
| 20260503231326 | 59 | 296 | 3.0 | 11.0 | 0.21 | 0.62 | 0.50 | 95 | 1015.2 |
| 20260503230827 | 59 | 267 | 2.0 | 11.0 | 0.26 | 0.62 | 0.50 | 95 | 1015.2 |
| 20260503230327 | 59 | 354 | 1.0 | 8.0 | 0.27 | 0.62 | 0.50 | 95 | 1015.2 |
| 20260503225826 | 59 | 37 | 1.0 | 8.0 | 0.27 | 0.61 | 0.50 | 95 | 1015.2 |
| 20260503225326 | 59 | 327 | 1.0 | 3.0 | 0.26 | 0.61 | 0.49 | 95 | 1015.2 |
| 20260503224826 | 59 | 94 | 0.0 | 6.0 | 0.25 | 0.60 | 0.48 | 95 | 1015.3 |
| 20260503224326 | 59 | 316 | 1.0 | 9.0 | 0.23 | 0.57 | 0.46 | 95 | 1015.2 |
| 20260503223825 | 58 | 94 | 1.0 | 9.0 | 0.20 | 0.55 | 0.43 | 95 | 1015.2 |
| 20260503223326 | 59 | 41 | 1.0 | 5.0 | 0.19 | 0.54 | 0.42 | 95 | 1015.1 |
| 20260503222827 | 58 | 310 | 1.0 | 5.0 | 0.17 | 0.51 | 0.39 | 95 | 1015.1 |
| 20260503222325 | 58 | 12 | 1.0 | 5.0 | 0.09 | 0.44 | 0.33 | 95 | 1015.1 |
| 20260503221826 | 59 | 93 | 1.0 | 6.0 | 0.08 | 0.43 | 0.31 | 94 | 1015.2 |
| 20260503221326 | 59 | 292 | 1.0 | 8.0 | 0.06 | 0.41 | 0.29 | 94 | 1015.1 |
| 20260503220826 | 59 | 40 | 2.0 | 8.0 | 0.02 | 0.36 | 0.25 | 94 | 1015.1 |
| 20260503220327 | 59 | 58 | 2.0 | 6.0 | 0.01 | 0.35 | 0.24 | 94 | 1015.1 |
| 20260503215826 | 59 | 290 | 1.0 | 5.0 | 0.00 | 0.35 | 0.23 | 94 | 1015.0 |
| 20260503215326 | 59 | 157 | 2.0 | 7.0 | 0.00 | 0.35 | 0.23 | 94 | 1015.0 |
| 20260503214826 | 58 | 81 | 3.0 | 8.0 | 0.00 | 0.35 | 0.23 | 95 | 1015.1 |
| 20260503214325 | 58 | 43 | 2.0 | 8.0 | 0.00 | 0.35 | 0.23 | 95 | 1015.1 |
| 20260503214046 | 58 | 50 | 1.0 | 8.0 | 0.01 | 0.35 | 0.23 | 95 | 1015.0 |
| 20260503213324 | 58 | 288 | 2.0 | 8.0 | 0.01 | 0.35 | 0.23 | 95 | 1015.0 |
| 20260503212824 | 58 | 337 | 2.0 | 7.0 | 0.01 | 0.36 | 0.23 | 95 | 1014.8 |
| 20260503212322 | 58 | 31 | 2.0 | 7.0 | 0.01 | 0.36 | 0.23 | 95 | 1014.8 |
| 20260503211821 | 58 | 339 | 2.0 | 8.0 | 0.02 | 0.36 | 0.23 | 95 | 1014.7 |
| 20260503211322 | 58 | 29 | 2.0 | 8.0 | 0.02 | 0.36 | 0.23 | 95 | 1014.8 |
| 20260503210821 | 58 | 44 | 2.0 | 7.0 | 0.02 | 0.36 | 0.23 | 95 | 1014.7 |
| 20260503210321 | 58 | 83 | 1.0 | 7.0 | 0.02 | 0.36 | 0.23 | 95 | 1014.7 |
| 20260503205807 | 58 | 51 | 0.0 | 6.0 | 0.02 | 0.36 | 0.23 | 96 | 1014.6 |
| 20260503205301 | 58 | 312 | 1.0 | 6.0 | 0.02 | 0.36 | 0.23 | 96 | 1014.6 |
| 20260503204800 | 58 | 349 | 1.0 | 5.0 | 0.02 | 0.36 | 0.23 | 96 | 1014.5 |
| 20260503204249 | 58 | 299 | 1.0 | 4.0 | 0.05 | 0.36 | 0.23 | 96 | 1014.5 |
| 20260503203749 | 58 | 285 | 1.0 | 5.0 | 0.05 | 0.35 | 0.22 | 96 | 1014.5 |
| 20260503203249 | 57 | 43 | 0.0 | 5.0 | 0.05 | 0.35 | 0.22 | 96 | 1014.4 |
| 20260503202747 | 57 | 337 | 0.0 | 1.0 | 0.05 | 0.35 | 0.22 | 95 | 1014.4 |
| 20260503202243 | 57 | 55 | 0.0 | 1.0 | 0.06 | 0.35 | 0.22 | 95 | 1014.3 |
| 20260503201744 | 57 | 63 | 0.0 | 1.0 | 0.05 | 0.35 | 0.21 | 95 | 1014.2 |
| 20260503201242 | 57 | 63 | 0.0 | 3.0 | 0.05 | 0.35 | 0.21 | 95 | 1014.4 |
| 20260503200743 | 57 | 339 | 0.0 | 3.0 | 0.05 | 0.35 | 0.21 | 95 | 1014.5 |
| 20260503200243 | 57 | 78 | 0.0 | 2.0 | 0.05 | 0.35 | 0.21 | 95 | 1014.3 |
| 20260503195744 | 57 | 301 | 0.0 | 3.0 | 0.05 | 0.35 | 0.21 | 95 | 1014.5 |
| 20260503195458 | 57 | 40 | 0.0 | 3.0 | 0.04 | 0.34 | 0.20 | 95 | 1014.4 |
| 20260503194959 | 57 | 22 | 1.0 | 6.0 | 0.04 | 0.34 | 0.20 | 95 | 1014.5 |
| 20260503194239 | 57 | 355 | 1.0 | 6.0 | 0.02 | 0.31 | 0.18 | 95 | 1014.6 |
| 20260503193742 | 57 | 40 | 1.0 | 6.0 | 0.01 | 0.31 | 0.18 | 95 | 1014.5 |
| 20260503193241 | 57 | 254 | 1.0 | 5.0 | 0.01 | 0.31 | 0.17 | 95 | 1014.4 |
| 20260503192741 | 57 | 28 | 2.0 | 7.0 | 0.01 | 0.31 | 0.17 | 95 | 1014.4 |
| 20260503192240 | 57 | 338 | 2.0 | 7.0 | 0.00 | 0.30 | 0.17 | 95 | 1014.5 |
| 20260503191741 | 57 | 347 | 2.0 | 8.0 | 0.00 | 0.30 | 0.17 | 95 | 1014.6 |
| 20260503191240 | 57 | 349 | 2.0 | 8.0 | 0.00 | 0.30 | 0.17 | 95 | 1014.5 |
| 20260503190734 | 57 | 29 | 1.0 | 4.0 | 0.00 | 0.30 | 0.17 | 95 | 1014.6 |
| 20260503190451 | 57 | 44 | 1.0 | 4.0 | 0.01 | 0.30 | 0.17 | 95 | 1014.7 |
| 20260503185721 | 57 | 39 | 1.0 | 4.0 | 0.01 | 0.30 | 0.17 | 95 | 1014.7 |
| 20260503185217 | 57 | 3 | 1.0 | 6.0 | 0.01 | 0.30 | 0.17 | 95 | 1014.7 |
| 20260503184710 | 58 | 51 | 2.0 | 7.0 | 0.01 | 0.30 | 0.17 | 95 | 1014.6 |
| 20260503184428 | 58 | 67 | 2.0 | 7.0 | 0.01 | 0.30 | 0.17 | 95 | 1014.7 |
| 20260503183659 | 58 | 14 | 1.0 | 7.0 | 0.01 | 0.30 | 0.17 | 95 | 1015.0 |
| 20260503183153 | 58 | 284 | 1.0 | 5.0 | 0.01 | 0.30 | 0.17 | 95 | 1015.1 |
| 20260503182648 | 58 | 28 | 1.0 | 5.0 | 0.01 | 0.30 | 0.17 | 95 | 1015.1 |
| 20260503182140 | 58 | 353 | 1.0 | 6.0 | 0.01 | 0.30 | 0.17 | 95 | 1015.1 |
| 20260503181635 | 58 | 55 | 1.0 | 6.0 | 0.02 | 0.30 | 0.17 | 95 | 1015.2 |
| 20260503181128 | 58 | 299 | 1.0 | 5.0 | 0.04 | 0.30 | 0.17 | 95 | 1015.2 |
| 20260503180623 | 58 | 23 | 0.0 | 5.0 | 0.06 | 0.30 | 0.17 | 95 | 1015.3 |
| 20260503180341 | 58 | 5 | 0.0 | 4.0 | 0.05 | 0.29 | 0.16 | 95 | 1015.2 |
| 20260503175609 | 58 | 322 | 0.0 | 3.0 | 0.06 | 0.29 | 0.16 | 95 | 1015.3 |
| 20260503175328 | 58 | 306 | 1.0 | 6.0 | 0.06 | 0.29 | 0.16 | 95 | 1015.3 |
| 20260503174557 | 58 | 39 | 1.0 | 6.0 | 0.06 | 0.29 | 0.16 | 95 | 1015.3 |
| 20260503174052 | 58 | 276 | 1.0 | 8.0 | 0.06 | 0.29 | 0.16 | 95 | 1015.3 |
| 20260503173545 | 58 | 343 | 2.0 | 8.0 | 0.06 | 0.29 | 0.16 | 95 | 1015.3 |
| 20260503173039 | 58 | 40 | 2.0 | 9.0 | 0.06 | 0.29 | 0.16 | 95 | 1015.2 |
| 20260503172533 | 58 | 294 | 3.0 | 9.0 | 0.07 | 0.29 | 0.16 | 95 | 1015.1 |
| 20260503172027 | 58 | 47 | 2.0 | 9.0 | 0.06 | 0.28 | 0.16 | 95 | 1015.1 |
| 20260503171521 | 58 | 10 | 3.0 | 9.0 | 0.06 | 0.28 | 0.14 | 95 | 1015.3 |
| 20260503171016 | 58 | 36 | 2.0 | 8.0 | 0.04 | 0.25 | 0.13 | 95 | 1015.5 |
| 20260503170509 | 58 | 8 | 2.0 | 9.0 | 0.04 | 0.24 | 0.11 | 95 | 1015.6 |
| 20260503150751 | 59 | 26 | 2.0 | 6.0 | 0.05 | 0.19 | 0.06 | 94 | 1016.5 |
| 20260503150508 | 59 | 78 | 2.0 | 6.0 | 0.05 | 0.19 | 0.06 | 94 | 1016.5 |
| 20260503140246 | 59 | 28 | 1.0 | 6.0 | 0.02 | 0.14 | 0.01 | 94 | 1016.9 |
| 20260503131151 | 59 | 342 | 0.0 | 4.0 | 0.01 | 0.13 | 0.13 | 92 | 1017.1 |
| 20260503130646 | 59 | 26 | 0.0 | 4.0 | 0.01 | 0.13 | 0.13 | 92 | 1017.2 |
| 20260503130139 | 59 | 40 | 1.0 | 4.0 | 0.01 | 0.13 | 0.13 | 92 | 1017.2 |
| 20260503110539 | 59 | 47 | 0.0 | 0.0 | 0.01 | 0.12 | 0.12 | 94 | 1017.6 |
| 20260503090504 | 60 | 292 | 0.0 | 4.0 | 0.03 | 0.05 | 0.05 | 91 | 1017.6 |
| 20260503081417 | 61 | 42 | 0.0 | 0.0 | 0.00 | 0.02 | 0.02 | 89 | 1017.4 |
| 20260503080917 | 61 | 349 | 0.0 | 0.0 | 0.00 | 0.02 | 0.02 | 89 | 1017.4 |
| 20260503080417 | 61 | 349 | 0.0 | 0.0 | 0.00 | 0.02 | 0.02 | 88 | 1017.4 |
| 20260503072408 | 62 | 316 | 0.0 | 0.0 | 0.00 | 0.02 | 0.02 | 85 | 1017.3 |
| 20260503071905 | 63 | 322 | 0.0 | 0.0 | 0.00 | 0.02 | 0.02 | 85 | 1017.2 |
| 20260503071403 | 63 | 38 | 0.0 | 0.0 | 0.00 | 0.02 | 0.02 | 84 | 1017.2 |
| 20260503070902 | 63 | 31 | 0.0 | 0.0 | 0.00 | 0.02 | 0.02 | 83 | 1017.2 |
| 20260503070622 | 63 | 239 | 0.0 | 0.0 | 0.00 | 0.02 | 0.02 | 82 | 1017.3 |